Regional Weather Roundup
Issued by NWS

Home | Current Version | Previous Version | Graphics & Text | Print | Product List | Glossary On
Versions: 1 2 3 4 5 6 7 8 9 10 11 12 13 14 15 16 17 18 19 20 21 22 23 24 25 26 27 28 29 30 31 32 33 34 35 36 37 38 39 40 41 42 43 44 45 46 47 48 49 50
392
ASUS43 KLSX 161907
RWRMO

WEATHER SUMMARY FOR MISSOURI
NATIONAL WEATHER SERVICE SPRINGFIELD MO
100 PM CST TUE JAN 16 2018

NOTE: "FAIR" INDICATES FEW OR NO CLOUDS BELOW 12,000 FEET WITH NO
       SIGNIFICANT WEATHER AND/OR OBSTRUCTIONS TO VISIBILITY.
       CURRENT SKY AND/OR WEATHER CONDITIONS ARE NOT AVAILABLE FOR
       CHILLICOTHE AND FARMINGTON.

MOZ001>031-035>038-043-044-053-054-162000-
...NORTHERN AND WESTERN MISSOURI...

CITY           SKY/WX    TMP DP  RH WIND       PRES   REMARKS
KANSAS CTY INT PTSUNNY    7  -2  66 NW14      30.72F WCI -10
KANSAS C DTWN  MOSUNNY    9   0  67 W10       30.75F WCI  -5
LEE`S SUMMIT   PTSUNNY    8  -1  66 NW12      30.72F WCI  -7
ST JOSEPH      CLOUDY     5  -1  76 NW10      30.76F WCI -10
KIRKSVILLE     SUNNY      9   0  67 W10       30.65F WCI  -5

$$
MOZ066>068-077>081-088>096-101>105-162000-
...SOUTHWEST MISSOURI...

CITY           SKY/WX    TMP DP  RH WIND       PRES   REMARKS
SPRINGFIELD    PTSUNNY    5  -4  66 W9        30.67F WCI  -9
JOPLIN         SUNNY      4  -4  69 NW14      30.76F WCI -14
BRANSON        MOSUNNY    7  -2  66 NW10      30.67  WCI  -8

$$
MOZ032>034-039>042-045>050-055>058-069>072-162000-
...CENTRAL MISSOURI...

CITY           SKY/WX    TMP DP  RH WIND       PRES   REMARKS
COLUMBIA       MOSUNNY    6  -3  66 W12       30.67F WCI  -9
JEFFERSON CITY MOSUNNY    5  -5  63 NW12      30.72F WCI -11
ROLLA          SUNNY      6  -3  66 W15       30.63F WCI -12
SEDALIA        CLOUDY     6   0  76 W12       30.71F WCI  -9
WHITEMAN AFB   CLOUDY     7  -4  61 NW12      30.68F WCI  -9
WARRENSBURG    FLURRIES   9  -2  61 W12       30.74F WCI  -6
OSAGE BEACH    CLOUDY    10  -3  55 W8        30.70F WCI  -2

$$
MOZ051-052-059>065-162000-
...EAST CENTRAL MISSOURI...

CITY           SKY/WX    TMP DP  RH WIND       PRES   REMARKS
ST LOUIS INTL  MOSUNNY    8  -1  66 W15       30.64F WCI  -9
SPIRIT OF STL  PTSUNNY   10  -1  61 NW15      30.66F WCI  -7
ST CHARLES     CLOUDY     8  -3  61 W15       30.66F WCI  -9

$$
MOZ072>076-082>087-097>100-106>115-162000-
...SOUTH CENTRAL AND SOUTHEAST MISSOURI...

CITY           SKY/WX    TMP DP  RH WIND       PRES   REMARKS
CAPE GIRARDEAU FAIR      13   0  56 NW9       30.65F WCI   1
FARMINGTON     PTSUNNY   12   0  58 NW14      30.60F WCI  -3
POPLAR BLUFF   FAIR      23  -2  33 W9        30.66F WCI  13
WEST PLAINS    SUNNY     11  -2  56 NW13      30.62F WCI  -4

$$



USA.gov is the U.S. government's official web portal to all federal, state and local government web resources and services.